Location: Newark
(29.9790°N, 31.1340°E)
Time: 01:06:32
(UTC+00:00)

A-11 Canister half - Pass Details

Date: 26 January 2020
Orbit: 1524 x 1684 km, 47.3° (Epoch: 26 February)

Event Time Altitude Azimuth Distance (km) Brightness Sun altitude
Rises 20:08:39 0° 309° (NW) 4,744 12.0 -60.7°
Reaches altitude 10° 20:11:58 10° 316° (NW) 3,780 11.3 -61.4°
Enters shadow 20:12:19 11° 317° (NW) 3,682 11.2 -61.4°
